Regional Weather Roundup
Issued by NWS

Home | Current Version | Previous Version | Graphics & Text | Print | Product List | Glossary On
Versions: 1 2 3 4 5 6 7 8 9 10 11 12 13 14 15 16 17 18 19 20 21 22 23 24 25 26 27 28 29 30 31 32 33 34 35 36 37 38 39 40 41 42 43 44 45 46 47 48 49 50
000
ASUS45 KCYS 242110
RWRWY

WYOMING REGIONAL WEATHER ROUNDUP
NATIONAL WEATHER SERVICE CHEYENNE WY
300 PM MDT THU JUL 24 2014

NOTE:  "FAIR" INDICATES FEW OR NO CLOUDS BELOW 12,000 FEET
WITH NO SIGNIFICANT WEATHER AND/OR OBSTRUCTIONS TO VISIBILITY.

WYZ001-242200-
YELLOWSTONE NATIONAL PARK

CITY           SKY/WX    TMP DP  RH WIND       PRES   REMARKS
LK YELLOWSTONE   N/A     70  29  21 VRB7G20   30.26F
W YELLOWSTONE  NOT AVBL

$$
WYZ002>013-054>058-071-098>099-242200-
NORTHERN WYOMING

CITY           SKY/WX    TMP DP  RH WIND       PRES   REMARKS
JACKSON        SUNNY     81  32  17 SW22      30.16S
CODY           NOT AVBL
GREYBULL       SUNNY    103  35   9 W17G28    29.79F HX  97
WORLAND        SUNNY    100  36  11 SW21G35   29.83S HX  94
SHERIDAN       MOSUNNY   89  57  33 NW8       29.79S THUNDER
BUFFALO        MOSUNNY   98  33  10 SW21G29   29.90F HX  92
GILLETTE       PTSUNNY  101  38  11 W20G26    29.83F HX  95
HULETT         FAIR      91  61  35 MISG      29.84  HX  91
NEWCASTLE      FAIR      95  32  11 MISG      29.86  HX  90

$$
WYZ014>020-022>026-101>103-242200-
CENTRAL WYOMING

CITY           SKY/WX    TMP DP  RH WIND       PRES   REMARKS
BIG PINEY      MOSUNNY   86  36  16 W21G28    30.19F
PINEDALE       PTCLDY    84  30  14 W23G32    30.19S
DUBOIS         FAIR      81  27  13 W25G40    30.17S HAZE
LANDER         MOSUNNY   95  28   9 W15G33    30.00F
RIVERTON       MOSUNNY   96  26   8 W20G35    29.99F HX  90
CASPER         PTSUNNY   95  35  12 SW25G35   30.00F HX  90
DOUGLAS        CLOUDY    92  43  18 W21G31    29.97S

$$
WYZ021-027>030-104>119-242200-
SOUTHERN WYOMING

CITY           SKY/WX    TMP DP  RH WIND       PRES   REMARKS
EVANSTON       MOSUNNY   86  39  19 W21G35    30.22F
KEMMERER       CLEAR     84  30  14 SW23G32   30.22F
FORT BRIDGER   FAIR      89  32  13 W24G35    30.24S
ROCK SPRINGS   MOSUNNY   85  37  18 W16       30.17F
DIXON          FAIR      86  41  20 SW18G26   30.23F
RAWLINS        PTSUNNY   85  39  19 W28G33    30.19F
SARATOGA       FAIR      84  39  20 SW26G32   30.25F
LARAMIE        CLOUDY    75  44  33 MISG      30.26S
CHEYENNE       PTSUNNY   88  46  23 W23G41    30.13S
TORRINGTON     MOSUNNY   99  46  16 W26G38    29.89F HX  95
PINE BLUFFS    FAIR      93  41  16 W16       30.02S

$$



USA.gov is the U.S. government's official web portal to all federal, state and local government web resources and services.